User: anonymous   Login
Location: Владивосток
(43.1151°N, 131.8856°E)
Time: 15:19:27
(UTC+10:00)
Language:

COSMOS 2251 DEB - Orbit

View from above orbital plane
View from above orbital plane
View from above satellite
View from above satellite

Ground track
Ground track

The orbit data is extracted from the following two-line orbital elements,

1 33762U 93036K   24197.36688755  .00000316  00000-0  12388-3 0  9998
2 33762  74.0404 172.0549 0015291 359.0329 151.3099 14.33358532806626
Epoch (UTC): 15 July 2024 08:48:19
Eccentricity: 0.0015291
inclination: 74.0404°
perigee height: 769 km
apogee height: 791 km
right ascension of ascending node: 172.0549°
argument of perigee: 359.0329°
revolutions per day: 14.33358532
mean anomaly at epoch: 151.3099°
orbit number at epoch: 80662

The dashed part of the orbit path shows where the satellite is in the earth's shadow,  

DLR